Location: Il Ritiro
(43.4167°N, 13.1333°E)
Time: 01:35:37
(UTC+00:00)

Cosmos 2058 - Pass Details

Date: 05 July 2020
Orbit: 562 x 584 km, 82.5° (Epoch: 11 August)

Event Time Altitude Azimuth Distance (km) Brightness Sun altitude
Exits shadow 21:24:58 50° 140° (SE) 738 3.0 -19.5°
Maximum altitude 21:25:43 60° 95° (E) 664 3.0 -19.5°
Drops below altitude 10° 21:29:49 10° 16° (NNE) 1,887 6.2 -19.8°
Sets 21:32:01 0° 12° (NNE) 2,786 7.3 -20.0°
